Flag for U.S.A. Weather past 2 weeks in Macon, Georgia, U.S.A.

Now
43 °F

Sunny.


Feels Like: 36 °F
Forecast: 33 / 49 °F
Wind: 13 mph from East

Location: Middle Georgia Regional Airport

Current Time: Feb 28, 2015 at 9:55:33 AM

Latest Report: Feb 28, 2015 at 8:53 AM


Visibility: 10 mi

Pressure: 30.55 "Hg

Humidity: 76%

Dew point: 36 °F

Location of MaconLocation

Historic Weather in Macon — Graph

°F

Macon temperature yesterday

Maximum temperature yesterday: 57 °F (at 3:53 PM)
Minimum temperature yesterday: 30 °F (at 6:53 AM)
Average temperature yesterday: 43 °F

Past Weeks' High & Low Weather Summary

 TemperatureHumidityPressure
High68 °F (Feb 22, 2:53 PM)100% (Feb 17, 1:02 AM)30.55 "Hg (Feb 17, 1:02 AM)
Low18 °F (Feb 20, 2:53 AM)15% (Feb 15, 3:53 PM)29.64 "Hg (Feb 26, 12:53 AM)
Average41 °F66%30.13 "Hg
* Reported Feb 13 8:53 AM — Feb 28 8:53 AM, Macon, Weather by CustomWeather, © 2015

Note: Actual official high and low records may vary slightly from our data, if they occured in-between our weather recording intervals... More about our weather records

Advertising

Macon weather history for previous 24 hours

 ConditionsComfort  
Time TempWeatherWind HumidityBarometerVisibility
8:53 AM
Sat, Feb 28
43 °FSunny.13 mph76%30.55 "Hg10 mi
7:53 AM39 °FSunny.9 mph82%30.54 "Hg10 mi
6:53 AM37 °FClear.9 mph86%30.52 "Hg10 mi
5:53 AM35 °FClear.9 mph85%30.48 "Hg10 mi
4:53 AM34 °FClear.No wind88%30.46 "Hg10 mi
3:53 AM34 °FClear.No wind82%30.45 "Hg10 mi
2:53 AM37 °FClear.No wind70%30.45 "Hg10 mi
1:53 AM37 °FClear.5 mph67%30.45 "Hg10 mi
12:53 AM36 °FClear.3 mph73%30.45 "Hg10 mi
11:53 PM
Fri, Feb 27
39 °FClear.No wind60%30.45 "Hg10 mi
10:53 PM42 °FClear.No wind51%30.43 "Hg10 mi
9:53 PM42 °FClear.5 mph57%30.40 "Hg10 mi
8:53 PM43 °FClear.6 mph62%30.38 "Hg10 mi
7:53 PM46 °FClear.7 mph56%30.36 "Hg10 mi
6:53 PM51 °FClear.5 mph44%30.34 "Hg10 mi
5:53 PM55 °FSunny.5 mph39%30.32 "Hg10 mi
4:53 PM57 °FSunny.8 mph36%30.31 "Hg10 mi
3:53 PM57 °FSunny.5 mph37%30.31 "Hg10 mi
2:53 PM55 °FSunny.3 mph40%30.32 "Hg10 mi
1:53 PM53 °FSunny.5 mph43%30.33 "Hg10 mi
12:53 PM51 °FSunny.7 mph50%30.36 "Hg10 mi
11:53 AM48 °FSunny.8 mph56%30.38 "Hg10 mi
10:53 AM45 °FSunny.7 mph60%30.37 "Hg10 mi
9:53 AM42 °FSunny.8 mph62%30.37 "Hg10 mi
Weather by CustomWeather, © 2015

See weather overviewHow to use our weather pages